MX Féminin/kids/Espoirs/Chpt85cc/National Open > Results

19 September 2021 @ Clastres (02)
Motocross • Mx Park Clastres 02 • LIGUE HAUTS DE FRANCE

106 participants

 

Results

  1. Chrono Chpt 85cc
  2. Manche 1 Chpt 85cc
  3. Manche 2 Chpt 85cc
  4. Chrono Course Open Nationale
  5. Manche 1 Course Open Nationale
  6. Manche 2 Course Open Nationale
  7. Classement Journée Course Open Nationale
  8. Chrono Espoirs 65cc Educatifs 85cc
  9. Manche 1 Espoirs 65 Educatifs 85cc
  10. Classement Journée Chpt 85cc
  11. Manche 2 Espoirs 65cc Educatifs 85cc
  12. Classement journée au Scratch Espoirs 65cc Educatifs 85cc
  13. Classement journée Espoirs 65cc
  14. Classement journée Educatifs 85cc
  15. Démonstration 1
  16. Démonstration 2
  17. Classement journée Démonstration
  18. Classement Journée Démonstration avec Point Bonus
  19. Provisoire Démonstration Kid's 50cc

Manche 1 Course Open Nationale

Place Number Participant Rg/sc Nb tours Ecart avec 1er Temps Total Meilleur Tour
1 906 PEREZ Sebastien MC CHARTAINVILLIERS Gas Gas 1 12 - 00:22:01.790 1:48.359
2 268 MAUPIN Thibault Moto Club Picard Gas Gas 1 12 7,054 00:22:08.844 1:46.719
3 661 COEN Jeremy Moto Club Rozoy KTM 1 12 16,933 00:22:18.723 1:48.147
4 41 PUFFET Matteo Moto Club de Conde sur Escaut Yamaha 1 12 47,818 00:22:49.608 1:48.675
5 308 VIELHOMME Lucas Moto Club Champignolais Kawasaki 1 12 50,133 00:22:51.923 1:52.074
6 277 BAJEUX Tanel Moto Club du Littoral 59 GasGas 1 12 56,275 00:22:58.065 1:51.924
7 859 FERNANDES Axel Sporting MC Sens Honda 1 12 57,821 00:22:59.611 1:50.825
8 879 MONCEL Edgard Moto Club Mailly le Camp Yamaha 1 12 1:31.859 00:23:33.649 1:53.983
9 374 BEURVILLE Jimmy Moto Club Champignolais Yamaha 1 12 1:38.087 00:23:39.877 1:54.835
10 133 LEFEBVRE Enzo Association Sportive de Maricourt KTM 1 11 1 Tr. 00:22:05.341 1:57.713
11 327 LABRUYERE Theo Union Sportive Crepynoise Moto KTM 1 11 1 Tr. 00:22:14.350 1:57.397
12 163 MILLEY Kevin Moto Club des 3 Communes Husqvarna 1 11 1 Tr. 00:22:26.458 1:58.287
13 789 POLART Mathis Liovette Club Beauvais Yamaha 1 11 1 Tr. 00:22:30.078 1:59.257
14 747 BOUTON Raphael MX Landricourt Honda 1 11 1 Tr. 00:22:30.416 1:59.382
15 641 RAFFAILLAC Thibaut Moto Club Tilloy Floriville KTM 1 11 1 Tr. 00:22:41.045 2:00.143
16 12 LABBE Alexis Liovette Club Beauvais GasGas 1 11 1 Tr. 00:22:41.166 1:57.470
17 984 LEROY Fabien Moto Club Marle et Voharies Yamaha 1 11 1 Tr. 00:22:57.908 1:58.432
18 38 LEFEBVRE Michel Planète Quad Yamaha 1 11 1 Tr. 00:22:59.153 2:01.070
19 175 CHOBRIAT Adrien Moto Club Rozoy Honda 1 11 1 Tr. 00:23:12.283 1:59.784
20 310 BRICKA Thomas Union Moto Bitchoise GasGas 1 11 1 Tr. 00:23:16.138 2:02.208
21 244 QUENTIN Maxime Planète Quad Yamaha 2 11 1 Tr. 00:23:22.043 2:00.838
22 848 MOREL Axel Planète Quad Yamaha 3 11 1 Tr. 00:23:24.993 2:04.372
23 160 DEWITTE Jeremy Moto Club de Blargies Honda 1 11 1 Tr. 00:23:34.333 2:05.443
24 329 FERNANDES Antony Mx Park Clastres 02 Honda 1 11 1 Tr. 00:23:38.941 2:04.882
25 117 POTENSIER Clement Moto Club Rozoy GasGas 1 11 1 Tr. 00:23:39.424 2:04.624
26 10 LEFEBVRE Maxime Moto Club du Littoral 59 Kawasaki 1 10 2 Tr. 00:22:11.056 2:09.084
27 102 GOMME Quentin Moto Club de Blargies KTM 1 10 2 Tr. 00:22:15.292 2:07.485
28 834 CEULEMANS Timote Mx Park Clastres 02 GasGas 1 10 2 Tr. 00:22:19.323 2:10.494
29 734 DUQUENNE Alexis Mx Park Clastres 02 Husqvarna 1 10 2 Tr. 00:22:19.656 2:08.316
30 242 CHABRILLAT Flavien Moto Club Nord Seine & Marnais Yamaha 1 10 2 Tr. 00:22:29.465 2:10.861
31 979 GRINGLET Patrick MX Landricourt Honda 2 10 2 Tr. 00:22:42.842 2:11.164
32 296 LE LAPOUS Florian Liovette Club Beauvais Honda 1 10 2 Tr. 00:24:10.041 2:17.454
33 299 TURPIN Thibault Moto Club Team-Mx 78 Kawasaki 1 8 4 Tr. 00:18:24.401 2:04.288
34 202 CHUFFART Francois-Xavier Association Sportive de Maricourt Yamaha 1 8 4 Tr. 00:18:52.405 2:09.284
35 25 KURMAN Camille Mx Moulins Motoclub Yamaha 1 7 5 Tr. 00:16:15.863 2:02.707
36 260 FERNEZ Benjamin Moto Club Mailly le Camp Honda 1 7 5 Tr. 00:17:19.685 2:17.656
37 850 DUBOIS Alban Association Sportive de Maricourt KTM 2 7 5 Tr. 00:23:48.215 1:54.575
38 105 FEUTRY Thomas MX Chrono KTM 1 5 7 Tr. 00:11:37.443 2:10.817

- DNF : Do Not Finish (non arrivé)
- DNS : Do Not Start (non parti)